Probability
9 7 5 5 4 4 6 7 6 5 4 4 4 3 2 2 3 3 3 7 12 15 14 12 9 6 8 13 16 17 16 14 14 13 8 4 3 2 2 3 4 5 6
7 6 5 5 3 3 5 5 5 4 3 3 3 3 3 3 3 3 3 6 10 13 13 13 9 7 8 10 11 13 15 14 13 12 9 5 4 3 3 3 3 4 5
4 3 3 3 1 1 2 2 2 2 1 1 1 2 2 2 2 3 3 4 6 9 12 14 13 11 9 8 7 10 13 13 12 11 10 7 5 5 5 5 5 3 3
2 2 1 1 0 0 0 0 0 0 0 0 0 1 1 1 1 1 2 3 4 6 10 14 16 14 11 10 8 9 11 12 12 11 11 10 9 8 8 8 7 4 3
5 3 1 0 0 0 0 0 0 0 0 0 0 0 0 0 0 0 1 2 3 5 7 11 13 13 11 10 9 9 9 11 13 13 12 11 11 11 9 7 7 5 4
7 5 2 1 0 0 0 0 0 0 0 0 0 0 0 0 0 0 0 1 2 2 3 5 8 9 10 10 9 8 8 10 12 12 10 9 9 8 7 6 6 5 4
6 4 3 1 0 0 0 0 0 0 0 0 0 0 0 0 0 0 0 0 0 0 0 2 4 6 8 10 10 9 8 9 8 9 9 9 7 5 4 5 5 4 4
3 3 2 1 0 0 0 0 0 0 0 0 0 0 0 0 0 0 0 0 0 0 0 1 3 4 7 9 10 9 8 8 6 5 7 8 7 4 3 4 5 4 4
1 1 1 0 0 0 0 0 0 0 0 0 0 0 0 0 0 0 0 0 0 0 0 1 2 3 5 7 8 8 7 6 4 4 5 6 5 3 1 2 3 3 3
0 0 0 0 0 0 0 0 0 0 0 0 0 0 0 0 0 0 0 0 0 0 0 0 1 1 4 6 7 6 5 4 3 3 4 5 5 2 1 1 1 1 2
0 0 0 0 0 0 0 0 0 0 0 0 0 0 0 0 0 0 0 0 0 0 0 0 0 0 2 3 4 4 4 3 2 3 3 4 4 3 3 2 1 1 2
0 0 0 0 0 0 0 0 0 0 0 0 0 0 0 0 0 0 0 0 0 0 0 0 0 0 0 1 1 1 2 2 2 3 3 3 4 4 4 3 3 2 1
0 0 0 0 0 0 0 0 0 0 0 0 0 0 0 0 0 0 0 0 0 0 0 0 0 0 0 0 0 0 0 1 1 2 3 3 3 3 3 3 2 2 1
0 0 0 0 0 0 0 0 0 0 0 0 0 0 0 0 0 0 0 0 0 0 0 0 0 0 0 0 0 0 0 0 0 1 2 2 2 1 1 1 1 1 0
0 0 0 0 0 0 0 0 0 0 0 0 0 0 0 0 0 0 0 0 0 0 0 0 0 0 0 0 0 0 0 0 0 0 0 0 0 0 0 0 0 0 0
0 0 0 0 0 0 0 0 0 0 0 0 0 0 0 0 0 0 0 0 0 0 0 0 0 0 0 0 1 0 0 0 0 0 0 0 0 0 0 0 0 0 0
0 0 0 0 0 0 0 0 0 0 0 0 0 0 0 0 0 0 0 0 0 0 0 0 0 0 0 0 0 0 0 0 0 0 0 0 0 0 0 0 0 0 0
0 0 1 1 0 0 0 0 0 0 0 0 0 0 0 0 0 0 0 0 0 0 0 0 0 0 0 0 0 0 0 0 0 0 0 0 0 0 0 0 0 0 0
1 1 1 1 0 0 0 0 0 0 0 0 0 0 0 0 0 0 0 0 0 0 0 0 0 0 0 0 0 0 0 0 0 0 0 0 0 0 0 0 0 0 0
2 2 1 1 0 0 0 0 0 0 0 0 0 0 0 0 0 0 0 0 0 0 0 0 0 0 0 0 0 0 0 0 0 0 0 0 0 0 0 0 0 0 0
2 1 0 0 0 0 0 0 0 0 0 0 0 0 0 0 0 0 0 0 0 0 0 0 0 0 0 0 0 0 0 0 0 0 0 0 0 0 0 0 0 0 0
1 0 0 0 0 0 0 0 0 0 0 0 0 0 0 0 0 0 0 0 0 0 0 0 0 0 0 0 0 0 0 0 0 0 0 0 0 0 0 0 0 0 0
0 0 0 0 0 0 0 0 0 0 0 0 0 0 0 0 0 0 0 0 0 0 0 0 0 0 0 0 0 0 0 0 0 0 0 0 0 0 0 0 0 0 0
0 0 0 0 0 0 0 0 0 0 0 0 0 0 0 0 0 0 0 0 0 0 0 0 0 0 0 0 0 0 0 0 0 0 0 0 0 0 0 0 0 0 0
0 0 0 0 0 0 0 0 0 0 0 0 0 0 0 0 0 0 0 0 0 0 0 0 0 0 0 0 0 0 0 0 0 0 0 0 0 0 0 0 0 0 0
0 0 0 0 0 0 0 0 0 0 0 0 0 0 0 0 0 0 0 0 0 0 0 0 0 0 0 0 0 0 0 0 0 0 0 0 0 0 0 0 0 0 0
Wind_Speed
1 1 1 1 1 1 1 2 2 2 3 2 2 2 2 1 1 1 2 5 6 6 7 7 8 9 9 9 9 9 10 11 11 10 10 10 10 10 11 11 12 12 13
1 1 1 1 1 1 1 1 1 2 2 2 2 2 2 1 1 2 2 3 5 6 5 6 7 8 8 8 8 8 9 10 11 11 10 10 10 10 10 11 11 12 12
2 1 1 1 1 1 2 1 2 2 2 2 3 3 2 2 2 2 2 2 3 5 6 6 6 6 6 7 7 7 8 9 9 10 10 10 9 9 10 10 11 12 12
2 1 1 1 1 1 2 1 1 2 2 2 2 3 2 2 3 2 2 2 2 2 4 5 5 5 6 6 7 7 7 8 8 9 9 9 9 8 8 9 9 10 11
2 2 1 1 1 1 1 2 2 1 2 3 3 3 2 2 2 2 2 2 2 2 2 3 5 4 5 6 6 6 7 7 7 8 9 9 9 8 8 8 9 9 10
2 2 1 2 2 1 2 2 2 2 1 3 3 3 2 2 1 1 1 1 1 1 1 2 2 2 4 5 5 6 7 7 6 6 7 8 8 9 9 9 9 9 10
2 2 1 1 1 1 1 2 1 2 2 2 1 3 3 2 1 1 1 1 1 1 1 1 1 1 2 3 4 5 6 6 5 5 5 6 7 8 9 9 9 9 9
2 1 1 1 1 1 2 2 1 1 2 1 0 1 2 3 2 2 1 1 1 1 1 1 1 1 1 0 1 4 5 5 5 4 4 4 4 5 7 8 8 9 9
1 1 1 1 1 1 1 2 1 0 2 2 0 1 0 2 3 3 2 1 1 1 1 1 1 1 1 1 1 2 3 3 3 3 3 3 3 2 3 5 7 8 9
1 1 1 1 1 0 1 2 1 1 1 2 2 1 2 2 1 2 3 2 2 2 2 1 1 1 1 1 1 2 3 3 3 4 3 4 4 4 3 3 4 6 7
1 1 1 1 1 1 1 1 2 2 1 1 1 1 1 1 1 2 3 3 2 2 2 2 1 1 1 1 1 2 2 2 3 3 3 3 4 4 3 3 3 4 5
1 2 1 1 1 1 1 2 2 2 1 1 1 1 1 1 2 2 2 2 3 3 1 1 1 1 1 2 2 4 4 3 2 2 2 2 2 2 3 3 3 3 3
1 1 1 1 1 1 1 1 1 2 2 2 2 2 2 2 2 2 2 2 2 2 1 1 1 1 2 2 2 4 4 3 3 2 2 2 2 2 2 2 2 2 3
2 2 1 1 2 2 2 1 1 2 2 2 3 2 2 2 2 2 2 2 1 2 1 2 1 1 1 2 3 3 2 4 4 3 3 2 2 2 2 2 2 2 2
1 1 1 1 2 2 2 2 1 3 2 2 3 3 2 2 2 2 2 2 2 1 2 2 1 1 1 1 3 2 2 4 5 4 3 3 2 2 2 2 2 2 2
1 1 1 2 2 2 2 2 2 3 2 3 2 2 2 2 2 2 1 1 2 2 2 2 2 2 2 2 3 3 3 5 5 5 5 4 4 4 4 3 3 3 3
1 1 2 1 2 2 2 2 2 3 3 3 3 2 3 3 2 2 1 1 1 2 2 2 1 1 1 2 1 2 2 2 3 6 6 6 5 5 5 5 4 4 4
1 1 1 1 1 2 2 2 2 2 3 3 3 3 3 2 2 2 1 1 1 2 2 2 1 1 2 2 2 2 2 3 3 5 7 7 7 7 7 6 6 5 5
2 2 1 1 2 2 2 2 2 2 2 3 3 3 3 2 2 2 1 1 1 1 1 2 1 1 1 1 1 2 2 2 3 4 6 7 8 8 8 8 7 7 7
2 2 1 1 2 2 2 2 2 2 3 3 3 3 2 2 2 2 1 1 1 0 1 1 1 1 1 1 1 1 2 2 3 3 4 5 6 8 9 9 9 9 9
2 1 1 1 2 1 2 2 2 2 2 3 4 3 3 3 3 2 2 2 1 1 1 1 1 1 1 1 2 2 2 2 3 2 2 3 2 3 5 7 9 10 10
1 1 1 2 2 2 4 4 3 2 2 2 3 4 4 4 4 3 3 3 3 3 3 2 2 2 3 3 2 2 1 1 2 2 2 3 2 3 4 4 8 11 11
1 2 2 2 3 4 6 6 5 2 2 3 3 3 4 4 4 2 3 3 3 5 6 4 4 4 4 4 3 2 2 2 4 3 1 3 2 4 4 6 10 11 11
2 2 3 3 3 5 6 6 5 2 2 3 3 3 3 4 4 2 2 3 3 3 4 4 5 6 5 4 4 4 3 2 2 2 3 3 3 3 4 4 7 10 11
2 3 3 3 3 5 6 5 4 1 2 4 4 3 3 3 5 3 2 3 4 4 5 6 6 7 8 7 5 2 2 1 2 3 2 3 3 2 3 3 5 8 10
2 3 3 3 4 5 7 6 4 1 2 3 4 4 5 5 6 4 2 2 4 5 4 4 4 5 5 6 7 6 5 3 2 3 3 3 2 1 2 3 2 2 4
Wind_Direction
56 49 32 36 12 353 341 338 336 325 318 315 302 299 283 239 205 209 243 235 224 224 223 221 219 219 214 212 210 210 208 207 204 204 203 202 201 201 204 203 201 202 203
97 74 19 7 345 338 330 314 316 317 309 306 311 309 289 278 250 226 235 247 237 225 224 228 227 224 218 215 214 212 209 208 206 204 205 205 204 205 207 208 207 207 205
104 96 44 3 337 346 3 352 340 339 333 331 321 314 299 286 263 250 245 238 238 225 221 225 229 226 220 219 219 214 208 209 208 209 206 205 207 208 210 211 212 210 207
92 85 54 356 340 10 15 357 353 341 329 321 310 302 304 295 275 257 242 231 225 232 235 230 228 229 230 229 227 219 212 212 213 214 209 208 207 207 209 210 210 211 210
72 75 45 349 12 28 7 346 356 331 317 316 297 292 305 302 292 279 252 243 224 223 235 236 233 231 235 234 227 218 213 212 215 212 212 210 206 206 209 211 212 212 211
70 70 50 13 23 22 353 349 327 328 307 303 299 303 294 286 293 297 278 265 221 218 231 233 246 249 236 230 225 221 219 214 212 212 215 213 211 211 212 213 215 215 215
68 68 49 25 22 21 327 329 326 331 316 320 339 318 314 307 312 289 287 282 269 249 215 206 216 250 256 236 230 223 223 218 213 210 218 222 221 216 212 212 214 215 216
61 69 66 43 17 14 352 349 2 344 312 338 52 339 332 331 331 318 301 277 290 288 247 199 186 215 257 237 232 226 228 222 216 209 215 220 224 220 220 217 214 213 212
45 59 65 52 6 20 331 323 332 320 295 304 207 154 217 273 306 310 300 288 287 278 276 251 201 214 218 187 228 237 212 196 198 200 202 207 223 227 235 223 220 221 219
39 51 58 58 22 350 324 314 340 285 264 297 306 250 208 211 235 297 308 302 285 261 253 247 223 214 185 169 191 204 197 193 204 211 215 219 223 228 233 232 230 232 227
359 14 35 35 11 333 317 317 319 318 279 245 267 285 281 276 227 222 280 300 306 275 246 233 219 218 200 180 185 197 193 194 211 214 219 229 228 223 226 232 232 240 238
335 335 357 7 355 332 319 312 302 305 290 275 264 249 237 238 247 228 243 274 285 287 280 237 202 205 203 189 193 186 188 179 184 199 208 222 223 215 215 232 233 231 240
275 292 331 326 325 302 298 304 312 305 292 284 268 259 251 242 229 225 230 260 277 288 309 288 230 201 209 192 197 194 186 174 177 187 196 217 227 223 224 232 239 235 240
220 249 278 290 296 303 310 303 293 288 291 284 279 274 270 269 242 218 213 212 271 298 295 273 292 218 204 195 203 203 190 191 194 195 201 219 227 220 223 235 247 257 256
212 233 258 288 299 300 294 294 296 293 292 288 285 284 277 276 267 251 221 194 192 232 267 255 254 242 205 197 203 198 205 213 213 207 208 218 229 229 231 240 250 263 272
224 265 284 298 302 304 310 317 307 304 309 303 289 291 290 280 284 279 240 218 196 188 231 243 230 228 214 220 210 209 219 223 226 221 219 223 234 239 239 242 245 252 258
263 275 277 288 304 311 320 329 309 306 308 305 301 290 289 283 289 285 262 237 218 177 210 265 251 237 218 232 232 221 227 226 229 228 227 228 236 241 240 241 242 244 248
273 278 282 294 304 316 323 329 317 313 306 305 304 301 295 299 294 290 271 246 236 205 185 210 262 246 240 233 222 226 234 229 229 233 230 230 237 240 241 241 243 243 246
272 290 284 297 302 305 307 300 295 309 308 300 299 296 293 299 307 305 293 258 243 219 176 184 233 245 255 239 227 253 251 263 249 238 232 234 238 239 239 240 240 241 243
256 278 277 280 282 285 289 293 304 308 311 312 307 299 299 286 273 273 266 247 210 185 184 186 232 258 264 263 205 241 273 267 261 254 243 238 237 241 242 241 242 241 239
247 249 253 283 290 280 273 274 284 293 304 314 319 314 306 306 290 263 240 223 196 188 196 200 237 260 263 252 237 227 244 273 273 248 246 254 241 245 246 244 243 241 239
260 272 268 268 289 282 281 278 268 283 291 295 304 310 311 312 308 297 273 248 215 198 201 201 218 230 245 238 231 225 222 242 277 255 195 256 225 248 251 241 242 238 237
269 276 277 274 280 282 286 287 281 260 274 277 280 291 303 312 317 301 295 291 265 234 214 198 213 230 229 223 206 224 223 214 235 245 188 262 250 252 252 250 244 238 236
248 256 264 272 274 279 284 285 285 273 278 280 274 268 274 294 300 290 288 295 281 266 242 222 219 231 233 229 212 212 219 229 266 261 185 235 256 250 259 253 249 239 236
266 266 263 265 268 279 283 282 277 284 288 294 293 285 263 270 286 294 277 288 294 291 273 248 236 239 242 238 220 185 196 191 269 272 206 203 248 263 272 262 254 244 239
262 277 274 266 260 268 277 275 260 227 280 293 300 296 279 269 276 281 256 262 279 284 292 301 287 274 257 250 234 208 199 199 219 263 237 194 230 221 291 280 261 251 243